Regional Weather Roundup
Issued by NWS Mt. Holly, NJ

Home | Current Version | Previous Version | Text Only | Print | Product List | Glossary On
Versions: 1 2 3 4 5 6 7 8 9 10 11 12 13 14 15 16 17 18 19 20 21 22 23 24 25 26 27 28 29 30 31 32 33 34 35 36 37 38 39 40 41 42 43 44 45 46 47 48 49 50
000
ASUS41 KPHI 131912
RWRPHI

REGIONAL WEATHER ROUNDUP
NATIONAL WEATHER SERVICE MOUNT HOLLY NJ
200 PM EST WED DEC 13 2017

NOTE:  "FAIR" INDICATES FEW OR NO CLOUDS BELOW 12,000 FEET WITH NO
SIGNIFICANT WEATHER AND/OR OBSTRUCTIONS TO VISIBILITY.

 * = STATION DOES NOT REPORT PRECIPITATION (E.G. RAIN, SNOW, ETC.)
        OR FOG.

NJZ015>026-132000-
SOUTHERN NEW JERSEY

CITY           SKY/WX    TMP DP  RH WIND       PRES   REMARKS
POMONA         SUNNY     32   7  35 W20G36    29.69R WCI  20
WILDWOOD*      SUNNY     30  10  43 W16G28    29.74F WCI  19
MILLVILLE      SUNNY     31   8  38 NW22G32   29.72S WCI  18
WRIGHTSTOWN    SUNNY     31   6  34 W22G32    29.64R WCI  18
MOUNT HOLLY    MOSUNNY   31   6  35 W18G32    29.68R WCI  19
TRENTON        MOSUNNY   30   6  36 W14G28    29.64R WCI  19

$$
NJZ001>014-132000-
NORTHERN NEW JERSEY

CITY           SKY/WX    TMP DP  RH WIND       PRES   REMARKS
SUSSEX         SUNNY     28   4  35 NW10G22   29.55R WCI  19
ANDOVER*         N/A     29   3  33 VRB5G23   29.57R WCI  24
MORRISTOWN     MOSUNNY   32   5  32 NW20G30   29.58R WCI  20
NEWARK         MOSUNNY   33   2  26 W24G37    29.58R WCI  20
TETERBORO      SUNNY     31   3  30 NW24G37   29.56R WCI  17
CALDWELL       SUNNY     30   1  29 NW18G25   29.58R WCI  18
SOMERVILLE     SUNNY     31   8  38 W14G29    29.60R WCI  21
ALLAIRE*       MOSUNNY   30   8  39 W23G36    29.61R WCI  17
TOMS RIVER*    SUNNY     31   9  39 W21G33    29.65R WCI  18

$$
PAZ043-044-047-054-055-060>062-066>071-132000-
EASTERN PENNSYLVANIA

CITY           SKY/WX    TMP DP  RH WIND       PRES   REMARKS
PHILADELPHIA   MOSUNNY   31   4  31 W22G31    29.70S WCI  18
NORTH PHILA    SUNNY     32   6  33 NW14G33   29.68S WCI  22
BLUE BELL*     SUNNY     30   7  37 W16G22    29.68S WCI  19
DOYLESTOWN     MOSUNNY   28   6  39 W15G26    29.64R WCI  16
QUAKERTOWN*    MOSUNNY   28   7  40 W18G25    29.65R WCI  16
PERKASIE*      FAIR      27   7  43 NW16G26   29.65R WCI  14
POTTSTOWN      SUNNY     28   5  37 W18G31    29.68S WCI  15
LANCASTER      SUNNY     29   5  36 W21G31    29.70R WCI  16
COATESVILLE    SUNNY     28   5  37 W21G28    29.68F WCI  15
READING        MOSUNNY   29   8  41 W23G29    29.67R WCI  15
ALLENTOWN      PTSUNNY   30   7  37 W23G31    29.64R WCI  17
MOUNT POCONO   CLOUDY    19   4  51 W23G35    29.49R WCI   2
HAZLETON       PTSUNNY   27   5  39 W10G22    29.58S WCI  17
LEHIGHTON      MOCLDY    28   5  37 W13G24    29.64S WCI  18
WILKES BARRE   PTSUNNY   25   5  42 NW16G22   29.58R WCI  12

$$
DEZALL-MDZ008-012-015-019-020-132000-
DELAWARE AND EASTERN MARYLAND

CITY           SKY/WX    TMP DP  RH WIND       PRES   REMARKS
WILMINGTON     SUNNY     31   4  31 W24G37    29.72F WCI  17
DOVER          MOSUNNY   31  10  40 W21G29    29.73F WCI  19
GEORGETOWN     SUNNY     31   5  33 W17G26    29.77F WCI  19
EASTON         MOSUNNY   32   3  29 NW13G23   29.81F WCI  22
ABERDEEN       MOSUNNY   30   5  34 W16G23    29.76S WCI  19
PATUXENT       MOSUNNY   33   7  33 W17G25    29.81S WCI  22
OCEAN CITY     SUNNY     31   9  39 W16G25    29.78F WCI  20
WALLOPS ISLAND PTSUNNY   33  11  39 W13G21    29.81F WCI  24
CAMBRIDGE      SUNNY     32   5  32 W12G23    29.79F WCI  23
SALISBURY      SUNNY     31   8  38 W20G26    29.79S WCI  19

$$
PAZ001-021-NYZ056-072-MDZ011-DCZ001-132000-
OTHER NEARBY LOCATIONS

CITY           SKY/WX    TMP DP  RH WIND       PRES   REMARKS
HARRISBURG     MOSUNNY   29   7  39 NW17G29   29.72S WCI  17
STATE COLLEGE  PTSUNNY   21   7  53 NW14G26   29.67F WCI   8
WILLIAMSPORT   PTSUNNY   28   6  39 NW16      29.67S WCI  16
BINGHAMTON     PTSUNNY   18   3  52 W16G22    29.52R WCI   3
NEW YORK CITY  SUNNY     31   3  30 W15G29    29.57R WCI  20
BALTIMORE      MOSUNNY   31   4  31 W20G28    29.76F WCI  19
WASHINGTON DC  MOSUNNY   34   7  32 W16G22    29.80S WCI  24

$$



USA.gov is the U.S. government's official web portal to all federal, state and local government web resources and services.